This is the latest recevied weather packets stored in our database for station/object K1BWE-1. If no packets are shown the sender has not sent any weather packets the latest 10 day(s).
| Time | Temp. | Humidity | Pressure | Rain* | Wind** | Luminosity | Snow |
|---|---|---|---|---|---|---|---|
| 1777451400 | 15.56° C | 26% | 1017.6 hPa | 0 mm | - | 0 W/m² | - |
| 1777451096 | 15.56° C | 24% | 1017.6 hPa | 0 mm | - | 0 W/m² | - |
| 1777450792 | 15° C | 25% | 1017.9 hPa | 0 mm | - | 0 W/m² | - |
| 1777450487 | 15° C | 25% | 1017.8 hPa | 0 mm | - | 0 W/m² | - |
| 1777450184 | 15° C | 26% | 1017.8 hPa | 0 mm | - | 0 W/m² | - |
| 1777449880 | 15° C | 26% | 1017.7 hPa | 0 mm | - | 0 W/m² | - |
| 1777449577 | 15.56° C | 25% | 1017.9 hPa | 0 mm | - | 0 W/m² | - |
| 1777449272 | 15.56° C | 25% | 1017.6 hPa | 0 mm | - | 0 W/m² | - |
| 1777448968 | 16.11° C | 24% | 1017.8 hPa | 0 mm | - | 0 W/m² | - |
| 1777448666 | 16.11° C | 23% | 1018.1 hPa | 0 mm | - | 0 W/m² | - |
| 1777448362 | 15.56° C | 24% | 1018.1 hPa | 0 mm | - | 0 W/m² | - |
| 1777448059 | 16.11° C | 23% | 1018.2 hPa | 0 mm | - | 0 W/m² | - |
| 1777447754 | 16.11° C | 22% | 1017.8 hPa | 0 mm | - | 0 W/m² | - |
| 1777447450 | 16.67° C | 22% | 1017.9 hPa | 0 mm | - | 0 W/m² | - |
| 1777447147 | 16.67° C | 22% | 1017.7 hPa | 0 mm | - | 0 W/m² | - |
| 1777446846 | 16.67° C | 22% | 1017.6 hPa | 0 mm | - | 0 W/m² | - |
| 1777446542 | 16.11° C | 23% | 1017.6 hPa | 0 mm | - | 0 W/m² | - |
| 1777446238 | 16.11° C | 24% | 1017.7 hPa | 0 mm | - | 0 W/m² | - |
| 1777445936 | 16.11° C | 24% | 1017.7 hPa | 0 mm | - | 0 W/m² | - |
| 1777445631 | 16.11° C | 24% | 1017.7 hPa | 0 mm | - | 0 W/m² | - |
| 1777445328 | 16.11° C | 25% | 1017.7 hPa | 0 mm | - | 0 W/m² | - |
| 1777445024 | 16.11° C | 25% | 1017.5 hPa | 0 mm | - | 0 W/m² | - |
| 1777444719 | 16.11° C | 24% | 1017.6 hPa | 0 mm | - | 0 W/m² | - |
| 1777444416 | 16.11° C | 25% | 1017.6 hPa | 0 mm | - | 0 W/m² | - |
| 1777444114 | 16.11° C | 25% | 1017.8 hPa | 0 mm | - | 0 W/m² | - |
* Rain latest hour (hover to see other rain measurements)
** Current wind speed in m/s (hover to see current wind gust speed)